Starlink 35211

operational
NORAD ID: 65757 Int'l Des: 2025-216 Owner: SPXS Country: US Constellation: starlink
NOTLE

Über Starlink 35211

Beschreibung wird geladen...

Live-Position

3D-Globus wird geladen...

Nächste Überflüge

Höhenverlauf

Altitude vs Time

uPlot chart will show altitude changes over time

Zweizeiliger Elementsatz

1 65757U 25216Z 25340.88130686 .00052954 00000-0 17866-2 0 9995
2 65757 53.1603 44.0121 0001797 78.0726 282.0476 15.30211797 12330
Epoch: 6. Dez. 2025 • Age: 12 hours

Aktueller Status

Höhe 493.6 km
Geschwindigkeit 7.62 km/s
Subsatellitenpunkt -50.28°S, 70.59°E
Startdatum 25. Sept. 2025
Alter 0.1 years
Typ internet

Technische Details

Klassifizierung Payload
Masse 575.00 kg
Trockenmasse 530.00 kg
Gesamtmasse 575.00 kg
Länge 0.30 m
Durchmesser 4.10 m
Spannweite 29.00 m
Form Box + pan
Hersteller SPXS
Bus-Typ Starlink V2MO
Phasenstatus In Orbit
Besitzer/Staat SPXS/US

Große Konstellationen

Loading constellations...